SCP
0 0 0 0 0 0 0 0 0 0 0 0 0 0 0 0 0 0 0 0 0 0 0 0 0 0 0 0 0 0 0 0 0 0 0 0 0 0 0 0 0 0 0 0 0 0 0 0 0
0 0 0 0 0 0 0 0 0 0 0 0 0 0 0 0 0 0 0 0 0 0 0 0 0 0 0 0 0 0 0 0 0 0 0 0 0 0 0 0 0 0 0 0 0 0 0 0 0
0 0 0 0 0 0 0 0 0 0 0 0 0 0 0 0 0 0 0 0 0 0 0 0 1 1 1 0 0 0 0 0 0 0 0 0 0 0 0 0 0 0 0 0 0 0 0 0 0
0 0 0 0 0 0 0 0 0 0 0 0 0 0 0 0 0 0 0 0 0 0 0 0 1 1 1 1 0 0 0 0 0 0 0 0 0 0 0 0 0 0 0 0 0 0 0 0 0
0 0 0 0 0 0 0 0 0 0 0 0 0 0 0 0 0 0 0 0 0 0 0 0 1 1 1 1 0 0 0 0 0 0 0 0 0 0 0 0 0 0 0 0 0 0 0 0 0
0 0 0 0 0 0 0 0 0 0 0 0 0 0 0 0 0 0 0 0 0 0 0 0 0 1 0 0 0 0 0 0 0 0 0 0 0 0 0 0 0 0 0 0 0 0 0 0 0
0 0 0 0 0 0 0 0 0 0 0 0 0 0 0 0 0 0 0 0 0 1 1 0 0 0 0 0 0 0 0 0 0 0 0 0 0 0 0 0 0 0 0 0 0 0 0 0 0
0 0 0 0 0 0 0 0 0 0 0 0 0 0 0 0 0 0 0 0 1 1 1 0 0 0 0 0 0 0 0 0 0 0 0 0 0 0 0 0 0 0 0 0 0 0 0 0 0
0 0 0 0 0 0 0 0 0 0 0 0 0 0 0 0 0 0 0 1 1 1 1 1 0 0 0 0 0 0 0 0 0 0 0 0 0 0 0 0 0 0 0 0 0 0 0 0 0
0 0 0 0 0 0 0 0 0 0 0 0 0 0 0 0 0 0 0 0 0 1 1 1 0 0 0 0 0 0 0 0 0 0 0 0 0 0 0 0 0 0 0 0 0 0 0 0 0
0 0 0 0 0 0 0 0 0 0 0 0 0 0 0 0 0 0 0 0 0 0 0 1 1 1 0 0 0 0 0 0 0 0 0 0 0 0 0 0 0 0 0 0 0 0 0 0 0
0 0 0 0 0 0 0 0 0 0 0 0 0 0 0 0 0 0 0 0 0 0 0 1 1 1 1 0 0 0 0 0 0 0 0 0 0 0 0 0 0 0 0 0 0 0 0 0 0
0 0 0 0 0 0 0 0 0 0 0 0 0 0 0 0 0 0 0 0 0 0 0 0 1 1 1 1 0 0 0 0 0 0 0 0 0 0 0 0 0 0 0 0 0 0 0 0 0
0 0 0 0 0 0 0 0 0 0 0 0 0 0 0 0 0 0 0 0 0 0 0 0 1 1 1 1 1 0 0 0 0 0 0 0 0 0 0 0 0 0 0 0 0 0 0 0 0
0 0 0 0 0 0 0 0 0 0 0 0 0 0 0 0 0 0 0 0 0 0 0 0 0 0 1 1 1 1 0 0 0 0 0 0 0 0 0 0 0 0 0 0 0 0 0 0 0
0 0 0 0 0 0 0 0 0 0 0 0 0 0 0 0 0 0 0 0 0 0 0 0 0 0 0 1 1 1 1 0 0 0 0 0 0 0 0 0 0 0 0 0 0 0 0 0 0
0 0 0 0 0 0 0 0 0 0 0 0 0 0 0 0 0 0 0 0 0 0 0 0 0 0 0 0 1 1 1 0 0 0 0 0 0 0 0 0 0 0 0 0 0 0 0 0 0
0 0 0 0 0 0 0 0 0 0 0 0 0 0 0 0 0 0 0 0 0 0 0 0 0 0 0 0 0 1 1 0 0 0 0 0 0 0 0 0 0 0 0 0 0 0 0 0 0
0 0 0 0 0 0 0 0 0 0 0 0 0 0 0 0 0 0 0 0 0 0 0 0 0 0 0 0 0 0 0 0 0 0 0 0 0 0 0 0 0 0 0 0 0 0 0 0 0
0 0 0 0 0 0 0 0 0 0 0 0 0 0 0 0 0 0 0 0 0 0 0 0 0 0 0 0 0 0 0 0 0 0 0 0 0 0 0 0 0 0 0 0 0 0 0 0 0
0 0 0 0 0 0 0 0 0 0 0 0 0 0 0 0 0 0 0 0 0 0 0 0 0 0 0 0 0 0 0 0 0 0 0 0 0 0 0 0 0 0 0 0 0 0 0 0 0
0 0 0 0 0 0 0 0 0 0 0 0 0 0 0 0 0 0 0 0 0 0 0 0 0 0 0 0 0 0 0 0 0 0 0 0 0 0 0 0 0 0 0 0 0 0 0 0 0
0 0 0 0 0 0 0 0 0 0 0 0 0 0 0 0 0 0 0 0 0 0 0 0 0 0 0 0 0 0 0 0 0 0 0 0 0 0 0 0 0 0 0 0 0 0 0 0 0
0 0 0 0 0 0 0 0 0 0 0 0 0 0 0 0 0 0 0 0 0 0 0 0 0 0 0 0 0 0 0 0 0 0 0 0 0 0 0 0 0 0 0 0 0 0 0 0 0
0 0 0 0 0 0 0 0 0 0 0 0 0 0 0 0 0 0 0 0 0 0 0 0 0 0 0 0 0 0 0 0 0 0 0 0 0 0 0 0 0 0 0 0 0 0 0 0 0
0 0 0 0 0 0 0 0 0 0 0 0 0 0 0 0 0 0 0 0 0 0 0 0 0 0 0 0 0 0 0 0 0 0 0 0 0 0 0 0 0 0 0 0 0 0 0 0 0
0 0 0 0 0 0 0 0 0 0 0 0 0 0 0 0 0 0 0 0 0 0 0 0 0 0 0 0 0 0 0 0 0 0 0 0 0 0 0 0 0 0 0 0 0 0 0 0 0
0 0 0 0 0 0 0 0 0 0 0 0 0 0 0 0 0 0 0 0 0 0 0 0 0 0 0 0 0 0 0 0 0 0 0 0 0 0 0 0 0 0 0 0 0 0 0 0 0
0 0 0 0 0 0 0 0 0 0 0 0 0 0 0 0 0 0 0 0 0 0 0 0 0 0 0 0 0 0 0 0 0 0 0 0 0 0 0 0 0 0 0 0 0 0 0 0 0
0 0 0 0 0 0 0 0 0 0 0 0 0 0 0 0 0 0 0 0 0 0 0 0 0 0 0 0 0 0 0 0 0 0 0 0 0 0 0 0 0 0 0 0 0 0 0 0 0
Wind_Speed
12 10 6 2 3 4 9 8 5 1 1 2 2 2 3 4 4 6 4 5 9 10 10 10 10 9 9 9 9 9 8 9 9 9 10 9 9 9 9 9 9 9 10 10 10 10 10 10 11
9 8 4 3 4 6 8 7 5 2 1 2 1 1 1 3 6 7 3 6 9 10 10 9 10 9 9 10 10 9 8 8 8 9 9 9 9 9 9 9 9 9 9 10 10 9 9 10 10
9 6 3 3 6 8 6 2 2 2 3 1 1 1 2 4 5 5 4 6 8 9 8 9 10 9 9 9 10 9 9 8 8 8 9 9 9 9 8 8 9 9 9 9 9 9 9 9 9
4 3 4 5 11 9 6 2 1 2 1 1 1 2 4 4 4 5 6 5 8 8 8 9 9 9 8 9 9 9 8 8 9 9 9 9 8 8 8 8 8 9 9 9 9 9 9 9 8
3 3 5 8 13 9 5 2 3 3 4 3 3 1 3 4 7 6 5 5 7 8 8 9 9 9 8 8 9 8 8 8 8 8 9 8 8 8 8 8 8 8 8 8 8 8 8 8 8
3 3 6 10 11 9 5 4 4 5 4 2 3 2 3 5 6 4 3 4 6 8 8 9 8 8 8 8 8 9 8 8 8 8 8 8 8 8 7 8 8 8 8 8 8 7 7 7 7
3 4 8 10 9 8 4 3 4 4 4 2 2 2 5 5 4 3 2 3 5 7 8 7 6 7 7 7 7 8 8 8 7 8 8 8 7 7 8 8 8 8 8 7 7 6 7 7 6
3 3 8 10 9 6 2 2 2 3 3 2 2 1 3 4 4 3 2 2 4 6 7 7 5 5 5 5 6 7 8 7 7 7 7 7 7 7 7 7 7 7 7 7 7 6 6 6 5
2 4 7 8 7 2 1 2 1 2 2 1 2 2 4 6 5 3 2 2 3 4 5 6 5 5 4 4 5 6 7 7 7 7 8 7 4 4 4 5 6 7 7 6 6 6 6 5 4
3 5 7 4 4 3 2 3 2 2 3 3 2 2 4 5 4 4 3 3 3 3 3 4 5 5 5 4 4 4 5 5 5 5 5 4 3 4 5 6 7 6 6 6 6 6 5 3 1
4 6 5 4 5 4 3 4 3 3 4 4 3 2 3 3 2 3 4 3 3 4 4 3 4 4 4 3 3 2 3 4 5 6 5 4 3 3 4 3 4 4 4 2 4 3 2 2 2
6 6 5 4 4 4 5 4 5 5 4 3 3 1 3 3 3 3 3 4 3 3 4 4 3 4 4 3 3 3 3 3 3 4 6 4 3 3 3 3 3 3 2 2 2 1 2 2 2
7 6 5 4 5 5 6 7 6 7 5 5 5 3 3 4 4 3 3 2 3 4 4 4 4 4 4 4 3 3 3 4 4 4 5 5 3 3 4 3 3 3 2 3 2 2 2 2 2
4 5 6 6 6 6 7 9 7 8 5 6 6 5 5 5 6 5 4 4 3 3 4 4 4 5 4 4 4 3 3 3 4 4 4 5 4 4 3 3 3 3 2 2 2 2 2 1 1
4 6 8 8 7 4 5 9 10 9 7 7 7 6 6 5 5 5 5 5 4 4 4 4 4 4 5 4 5 4 3 3 4 4 4 4 4 4 4 3 3 3 2 2 2 2 1 1 1
5 6 6 5 5 4 4 10 6 4 5 7 6 6 5 5 5 4 4 4 4 3 3 3 3 3 4 4 4 3 3 4 4 4 4 5 5 5 4 3 3 3 2 2 2 1 1 1 1
5 5 6 4 5 4 7 9 5 3 5 7 7 6 5 5 5 4 3 3 3 4 4 4 3 3 4 4 4 3 3 3 3 4 4 5 5 5 4 4 3 4 3 2 2 2 1 1 1
3 5 6 6 3 5 9 11 8 6 7 8 7 6 6 5 5 3 3 3 3 3 4 4 3 3 3 3 3 3 3 3 4 4 5 5 5 6 5 4 4 4 3 3 2 2 2 1 1
6 7 9 6 3 6 10 13 11 8 7 8 7 6 6 5 4 3 3 3 2 3 3 4 4 4 3 3 4 4 4 4 4 4 6 6 6 6 5 4 4 4 4 4 4 2 3 2 1
8 9 9 6 4 6 9 13 12 9 9 8 7 7 6 4 3 3 3 3 3 3 4 4 4 5 5 4 4 4 4 4 4 4 5 6 6 6 6 6 5 5 4 5 5 3 2 2 2
8 7 7 6 7 7 7 10 8 6 7 6 6 5 3 3 3 2 2 2 2 3 3 4 4 5 5 4 3 3 3 3 3 4 4 5 6 6 6 6 5 5 5 5 5 5 4 3 3
6 4 5 6 5 4 2 7 7 5 6 5 5 4 3 2 1 1 1 2 3 3 3 4 4 4 5 5 4 5 5 5 5 4 4 4 5 5 6 6 6 6 5 5 5 5 4 4 3
4 4 5 5 5 5 5 6 8 4 5 5 4 2 1 1 1 2 2 2 2 2 2 3 3 4 4 5 5 5 5 4 3 4 5 5 5 5 6 6 6 6 5 5 5 5 4 4 4
3 3 4 4 2 6 8 7 7 3 4 3 1 1 2 2 1 1 2 2 2 2 2 2 3 4 4 4 5 6 6 5 5 5 6 5 4 4 6 5 6 6 5 6 6 5 5 4 4
2 1 1 2 3 7 3 5 7 2 0 2 2 2 3 3 3 3 3 3 2 2 3 3 3 4 3 3 4 5 6 6 7 6 6 5 4 4 5 5 5 5 5 6 5 5 5 5 5
3 2 2 3 4 4 2 6 4 1 2 3 4 3 3 4 4 4 4 3 3 3 3 3 3 3 3 3 3 4 4 4 4 4 4 5 5 4 6 6 5 6 6 6 5 5 5 5 5
2 3 2 3 4 5 6 5 2 1 3 3 3 3 3 3 4 4 4 4 4 3 3 3 2 2 2 2 3 3 3 3 3 3 4 4 4 4 6 6 6 6 6 6 6 4 5 4 4
3 1 1 2 3 5 5 5 3 0 1 2 2 2 3 3 4 4 4 4 3 3 2 1 0 1 1 2 2 2 1 2 3 3 4 4 4 4 5 6 6 6 6 6 6 4 5 5 4
3 2 3 3 3 3 4 3 2 2 1 1 2 2 2 2 3 4 4 3 3 3 3 2 1 1 1 1 2 2 1 1 1 2 3 3 3 4 5 6 6 7 7 6 6 6 6 6 5
2 4 4 3 4 4 4 5 1 4 4 3 3 3 3 3 3 4 4 4 4 3 3 3 2 1 1 1 2 2 1 1 1 2 2 3 3 4 5 5 6 6 6 7 7 7 6 6 6
Wind_Direction
304 287 269 262 241 232 241 245 251 233 260 43 20 351 8 16 40 104 150 120 116 125 132 139 136 135 137 133 127 128 128 127 124 123 124 124 123 119 115 113 111 108 105 102 99 95 94 93 90
293 287 268 240 236 235 238 231 230 233 82 61 39 311 26 65 76 101 114 112 124 126 132 138 138 137 137 137 133 131 131 131 128 126 123 124 124 122 118 117 115 112 108 102 99 97 95 96 93
275 269 251 230 230 236 251 252 137 113 104 128 213 340 16 60 78 100 107 123 124 124 130 134 137 138 137 138 137 137 133 133 133 131 127 125 122 121 119 118 119 116 111 107 104 101 99 98 95
269 237 243 241 242 243 255 282 349 105 169 212 234 117 89 57 64 94 114 133 127 126 126 133 137 137 136 138 137 137 134 133 135 135 132 129 123 120 119 118 121 119 115 112 108 107 103 101 99
244 238 230 237 244 249 257 269 279 238 201 189 224 169 105 89 83 96 125 144 134 129 126 136 137 138 140 138 141 139 137 135 136 137 135 131 125 121 121 119 122 122 121 119 115 114 110 108 103
240 235 233 238 242 238 226 241 257 260 245 198 218 193 122 103 90 99 129 142 130 127 126 136 142 141 145 144 145 144 141 140 139 141 138 134 131 131 129 127 128 128 125 125 122 120 118 113 107
252 244 247 253 253 246 228 239 251 257 251 249 254 201 134 109 98 102 114 124 118 119 122 132 145 146 145 147 149 147 144 142 140 141 140 137 137 138 136 133 133 133 130 126 123 124 125 119 113
286 274 252 251 253 251 248 266 280 291 289 336 337 256 119 112 103 108 110 107 115 118 126 137 145 147 149 149 155 149 148 148 143 138 134 132 133 134 135 132 130 132 133 131 128 128 126 124 122
274 250 248 250 260 270 19 301 320 331 319 326 355 25 95 108 107 119 121 109 116 120 130 142 150 148 149 156 155 154 153 152 145 142 139 139 143 139 136 135 134 135 136 137 136 136 130 127 135
219 236 249 287 331 336 331 312 317 284 257 248 230 109 112 117 136 151 162 168 164 153 147 147 155 154 153 163 152 168 163 159 159 155 153 160 156 152 146 137 136 138 140 144 147 149 144 141 161
220 244 277 306 341 334 320 311 305 269 250 241 231 167 128 129 168 180 185 186 183 172 163 160 162 160 159 159 156 168 169 166 170 166 163 166 159 144 132 135 138 140 146 149 149 157 179 181 168
250 264 287 299 325 317 303 299 290 272 269 316 326 351 148 176 205 211 208 200 188 172 176 163 167 167 166 162 162 170 177 172 170 170 165 167 158 149 147 151 157 158 164 164 156 182 190 182 175
244 260 277 290 288 284 284 274 277 270 273 284 286 269 216 203 216 217 222 224 197 183 181 172 168 174 172 169 173 175 187 179 172 170 171 167 156 155 154 161 161 167 168 167 175 189 190 187 183
287 287 274 268 266 268 269 268 258 254 249 256 255 252 239 218 215 216 210 213 211 196 185 178 179 180 176 177 179 180 190 184 170 170 171 164 155 157 158 162 164 167 166 170 180 187 174 194 175
275 272 264 244 245 252 271 263 237 238 240 244 245 246 243 234 221 221 213 211 208 197 184 185 195 184 181 184 189 184 189 187 176 174 174 169 162 163 162 162 165 166 162 166 180 182 159 173 180
244 246 253 220 217 225 240 259 242 218 229 242 245 242 235 238 233 232 223 208 198 188 184 189 206 193 188 191 194 188 188 188 180 173 174 175 169 166 163 164 169 169 163 161 170 164 148 171 182
226 242 252 247 208 224 232 260 256 242 248 245 245 246 241 240 234 232 229 214 196 191 189 184 195 195 198 199 199 194 191 192 183 175 178 178 172 169 167 171 172 169 166 170 178 162 163 174 179
236 252 258 249 227 245 249 260 263 247 251 255 247 244 241 237 231 221 220 221 204 192 191 190 189 198 205 204 198 197 205 198 184 182 186 180 175 173 172 175 176 170 170 175 178 174 167 179 182
274 274 273 277 288 276 259 264 263 247 242 250 251 246 239 238 225 206 210 209 206 197 195 194 192 202 196 196 197 197 205 202 191 191 187 182 178 178 178 181 179 178 181 181 181 175 170 182 153
262 268 275 289 306 285 275 271 264 245 242 240 239 241 239 230 223 212 204 201 207 209 204 204 206 204 206 206 205 202 201 204 193 191 190 184 183 183 185 185 185 185 180 181 185 176 178 192 168
259 256 271 289 308 276 284 283 248 228 228 237 237 235 236 235 230 232 219 212 217 227 219 219 218 214 210 211 207 204 196 198 195 193 193 191 184 185 182 185 188 189 186 188 191 187 181 190 199
268 278 285 284 286 274 268 285 267 226 228 228 231 222 227 232 237 265 277 251 242 240 230 228 230 221 211 203 202 205 206 206 199 191 188 187 186 185 183 183 188 193 191 192 196 196 190 180 200
264 306 287 274 267 275 235 249 272 224 228 233 223 195 181 53 29 353 327 290 269 271 248 240 242 232 221 208 205 210 220 220 193 184 184 189 193 191 187 184 184 192 191 192 195 194 194 193 197
276 286 273 251 248 257 224 217 272 233 229 216 183 71 42 25 15 348 334 322 298 291 271 257 253 246 231 216 210 212 217 210 199 192 190 191 195 195 189 187 187 192 190 190 193 192 196 201 203
252 284 308 259 227 246 212 220 250 248 25 109 102 59 30 18 8 357 342 333 311 302 277 260 251 256 244 227 226 222 219 209 205 201 195 193 194 197 193 191 190 193 191 189 187 190 195 198 203
234 231 227 250 257 278 263 238 252 141 68 69 85 78 45 20 12 359 345 334 322 308 290 277 258 255 240 239 248 243 223 206 203 211 204 202 200 197 193 194 197 200 191 190 186 190 197 195 202
232 228 262 285 284 274 247 237 221 40 39 54 54 43 19 9 8 351 338 336 328 314 293 279 263 262 259 263 283 246 217 203 201 206 209 209 200 197 195 197 199 200 189 187 186 192 197 193 199
261 265 201 226 259 268 264 247 251 12 5 28 25 13 2 1 356 347 337 335 324 312 302 289 258 280 308 297 282 281 235 211 204 201 208 209 205 199 197 201 200 196 189 186 187 189 190 191 199
194 206 225 240 256 266 283 275 9 31 69 59 1 9 15 352 347 346 342 343 341 340 348 349 12 14 337 302 296 286 282 267 221 206 206 204 207 203 204 203 200 196 192 187 187 191 189 193 198
220 216 202 220 249 234 264 273 15 55 39 35 11 8 360 356 359 352 349 351 352 352 359 348 349 357 327 298 299 291 284 288 261 235 223 207 205 208 208 200 197 196 196 190 190 192 193 192 193